Wind_Speed
52 50 49 51 48 41 41 42 45 47 45 41 39 38 37 40 36 36 33 30 28 25 22 22 26 26 28
42 36 42 45 45 54 52 55 50 47 41 34 32 33 37 36 34 30 27 25 24 25 26 29 32 32 32
50 44 45 42 42 44 45 47 50 51 42 41 38 35 34 28 27 27 25 26 28 30 32 33 35 36 37
51 48 47 35 38 42 45 49 49 45 36 34 31 29 28 26 24 26 29 29 31 32 33 35 37 38 40
35 39 43 54 56 49 47 47 36 30 32 32 33 29 25 25 27 29 31 32 34 37 40 41 42 44 44
46 50 55 57 53 52 47 39 29 35 37 30 27 25 27 28 30 31 35 37 40 43 45 45 45 47 48
49 49 48 50 51 44 27 30 31 26 27 29 30 28 30 32 34 35 38 41 43 45 46 47 48 49 52
39 37 35 30 24 24 27 29 31 30 32 30 33 34 35 35 39 41 44 45 47 48 49 50 51 52 55
27 28 27 28 28 31 35 34 33 35 34 36 37 37 39 42 46 49 51 51 52 52 52 53 53 55 56
38 35 33 32 34 36 35 37 38 37 40 40 41 44 46 49 52 53 54 55 57 56 54 54 53 55 57
29 30 32 35 37 38 40 41 44 43 45 47 49 52 54 56 55 54 54 55 56 57 55 55 54 55 56
35 36 38 40 42 44 46 48 49 51 53 55 56 57 58 59 59 58 58 59 60 59 57 55 54 54 51
42 43 44 47 48 50 51 53 55 57 59 61 61 61 62 63 62 62 62 62 63 60 57 54 53 50 41
49 50 52 55 56 56 58 59 60 62 64 64 64 65 65 65 64 64 65 64 65 59 55 52 50 44 35
54 55 57 58 59 59 60 61 62 63 64 65 66 66 66 67 67 68 68 66 61 56 52 50 46 39 33
57 58 60 61 61 63 64 63 64 64 64 64 64 63 61 60 61 61 60 56 54 52 48 47 41 36 34
63 61 59 56 56 56 55 53 54 56 57 57 57 59 57 55 57 58 54 51 49 48 46 43 41 39 38
Wind_Direction
261 261 273 273 271 265 282 283 291 296 289 287 274 267 264 269 280 281 282 288 290 288 293 290 296 300 299
256 267 271 274 264 267 278 281 288 292 285 284 280 267 272 277 280 277 280 286 293 290 295 295 297 297 297
256 270 260 268 281 280 283 286 290 284 276 276 271 271 276 275 278 278 282 284 288 290 294 295 296 296 297
266 258 259 258 277 282 285 287 282 270 266 270 277 277 272 275 276 276 280 283 286 289 292 295 298 299 297
272 254 258 280 283 281 287 278 263 272 275 272 269 268 266 270 275 280 283 287 291 293 294 293 293 293 294
274 282 274 275 276 279 276 254 269 269 269 266 263 265 272 278 281 287 290 294 294 292 293 293 292 294 296
274 280 277 269 264 256 257 267 262 256 257 261 265 271 276 280 286 290 291 292 292 294 294 292 293 296 298
272 269 261 260 260 260 255 254 257 258 257 264 270 275 280 285 287 288 290 292 294 297 297 295 294 297 299
260 267 269 264 261 255 254 257 257 263 268 268 272 278 285 287 287 288 290 294 296 298 298 296 295 297 300
260 259 252 248 253 258 259 262 266 267 271 275 279 282 283 284 285 287 291 294 296 299 299 297 296 298 301
258 259 262 261 261 264 266 269 269 273 274 276 278 279 280 283 284 287 290 294 297 299 299 296 296 298 302
262 262 263 265 265 267 269 270 274 276 277 278 279 280 282 282 284 288 292 294 296 298 296 295 296 298 299
268 269 270 270 271 272 274 276 277 278 278 278 279 280 280 281 284 288 292 292 294 295 293 294 295 296 284
271 272 273 273 274 275 277 277 278 279 279 279 280 281 282 284 287 289 289 290 293 291 290 290 291 287 261
275 276 277 278 280 280 281 281 281 281 282 283 284 285 286 287 287 286 288 289 289 287 286 287 285 269 246
279 279 279 279 279 280 280 280 280 282 283 285 286 287 287 287 287 286 285 284 284 283 284 283 271 245 232
278 280 281 280 280 281 284 286 287 286 286 286 287 289 289 290 287 286 284 283 281 281 279 273 255 228 221
Height
5708 5708 5709 5710 5710 5709 5709 5709 5708 5705 5702 5698 5696 5696 5697 5697 5695 5694 5694 5693 5691 5690 5689 5686 5686 5685 5683
5695 5696 5699 5698 5695 5698 5697 5698 5696 5693 5691 5689 5689 5689 5689 5688 5687 5685 5685 5684 5683 5682 5681 5679 5678 5676 5675
5685 5683 5685 5683 5685 5687 5687 5685 5683 5684 5682 5680 5679 5679 5679 5676 5676 5677 5676 5675 5675 5674 5672 5671 5670 5667 5666
5673 5673 5673 5674 5676 5676 5673 5672 5671 5670 5669 5670 5670 5670 5669 5668 5669 5668 5668 5666 5666 5664 5661 5660 5657 5655 5654
5659 5661 5662 5661 5662 5663 5662 5661 5661 5660 5662 5662 5660 5661 5660 5659 5659 5658 5658 5657 5655 5653 5652 5649 5647 5645 5641
5649 5650 5650 5649 5650 5650 5650 5652 5651 5652 5652 5652 5654 5651 5652 5651 5649 5647 5647 5645 5644 5643 5641 5638 5634 5632 5629
5637 5637 5638 5638 5638 5636 5638 5641 5642 5641 5645 5644 5645 5641 5641 5640 5639 5636 5636 5635 5633 5630 5627 5624 5622 5618 5615
5624 5625 5628 5628 5628 5629 5631 5633 5635 5632 5635 5634 5634 5632 5631 5629 5628 5626 5626 5622 5620 5618 5613 5610 5607 5603 5598
5616 5618 5619 5620 5622 5622 5624 5623 5623 5625 5623 5625 5624 5621 5620 5617 5617 5614 5612 5609 5606 5602 5598 5594 5591 5587 5582
5607 5608 5610 5611 5613 5612 5612 5613 5613 5611 5612 5611 5610 5609 5608 5606 5603 5600 5597 5593 5591 5587 5583 5579 5575 5571 5566
5599 5599 5599 5601 5602 5601 5602 5601 5602 5599 5597 5596 5597 5594 5592 5592 5590 5585 5581 5578 5575 5571 5567 5563 5559 5555 5551
5590 5589 5589 5589 5589 5588 5588 5588 5586 5584 5582 5580 5580 5577 5576 5576 5574 5570 5565 5562 5558 5555 5551 5546 5542 5538 5536
5578 5577 5575 5575 5575 5574 5572 5571 5569 5567 5565 5564 5563 5561 5559 5558 5557 5553 5550 5547 5543 5538 5534 5530 5526 5523 5520
5565 5564 5563 5561 5560 5558 5556 5555 5553 5550 5548 5546 5544 5543 5541 5539 5538 5536 5532 5529 5525 5521 5517 5514 5510 5508 5507
5550 5548 5546 5544 5542 5540 5538 5537 5535 5533 5529 5525 5524 5523 5522 5520 5517 5514 5512 5510 5507 5504 5501 5498 5495 5494 5496
5533 5531 5529 5527 5524 5521 5519 5517 5515 5512 5509 5505 5503 5502 5501 5499 5496 5494 5491 5490 5488 5487 5485 5483 5481 5482 5486
5516 5514 5510 5507 5505 5502 5498 5496 5495 5493 5490 5486 5483 5482 5482 5482 5479 5475 5474 5471 5470 5470 5469 5467 5467 5471 5475